N179LJ MROC-MMMX

Flight info

Callsign N179LJ
Flight time N/A
Altitude 32000
Route NANJO4U ULAPO UA502 MGA UA317 TAP J13 IZT UT157 LARLO LARLO4A
Aircraft B738/M-SDE2E3FGHIRWXY/LB1

Departure

Time 2026-05-04 18:42
Airport Juan Santamaría International Airport (MROC)

Arrival

Time N/A
Airport Mexico City Benito Juárez International Airport (MMMX)
Time Latitude Longitude Altitude Speed Heading
2026-05-04 18:39 9.99441 -84.21008 2999 ft 0 kts 69°
2026-05-04 18:39 9.99443 -84.21001 2999 ft 3 kts 69°
2026-05-04 18:39 9.99471 -84.20926 3002 ft 18 kts 69°
2026-05-04 18:40 9.99525 -84.20785 3009 ft 24 kts 69°
2026-05-04 18:40 9.99597 -84.20594 3020 ft 33 kts 69°
2026-05-04 18:40 9.99688 -84.20346 3033 ft 36 kts 69°
2026-05-04 18:40 9.99766 -84.20139 3044 ft 25 kts 70°
2026-05-04 18:41 9.99782 -84.20013 3047 ft 15 kts 128°
2026-05-04 18:41 9.99701 -84.20036 3044 ft 16 kts 246°
2026-05-04 18:41 9.99639 -84.20209 3037 ft 53 kts 251°
2026-05-04 18:41 9.99436 -84.20783 3007 ft 118 kts 249°
2026-05-04 18:42 9.99062 -84.21751 2965 ft 172 kts 251°
2026-05-04 18:42 9.98613 -84.22945 3385 ft 184 kts 253°
2026-05-04 18:42 9.98198 -84.24219 3804 ft 202 kts 250°
2026-05-04 18:42 9.97640 -84.25570 4340 ft 214 kts 247°
2026-05-04 18:43 9.97032 -84.27018 4749 ft 231 kts 253°
2026-05-04 18:43 9.96930 -84.28680 5040 ft 248 kts 286°
2026-05-04 18:43 9.97794 -84.30219 5387 ft 262 kts 316°
2026-05-04 18:43 9.99357 -84.31243 5826 ft 272 kts 339°
2026-05-04 18:44 10.01161 -84.31921 6433 ft 278 kts 343°
2026-05-04 18:44 10.01773 -84.32137 6667 ft 279 kts 343°
2026-05-04 18:44 10.04838 -84.33250 7758 ft 285 kts 342°
2026-05-04 18:44 10.06742 -84.33949 8389 ft 290 kts 342°
2026-05-04 18:45 10.08624 -84.34642 9025 ft 293 kts 342°
2026-05-04 18:45 10.10546 -84.35423 9672 ft 298 kts 335°
2026-05-04 18:45 10.12310 -84.36533 10291 ft 304 kts 326°
2026-05-04 18:45 10.14025 -84.37907 10712 ft 318 kts 322°
2026-05-04 18:46 10.15760 -84.39374 11066 ft 333 kts 322°
2026-05-04 18:46 10.17597 -84.40901 11410 ft 348 kts 322°
2026-05-04 18:46 10.19553 -84.42487 11757 ft 362 kts 323°
2026-05-04 18:46 10.21551 -84.44083 12242 ft 371 kts 323°
2026-05-04 18:47 10.23578 -84.45693 12825 ft 375 kts 323°
2026-05-04 18:47 10.25657 -84.47341 13478 ft 377 kts 322°
2026-05-04 18:47 10.27698 -84.48960 14187 ft 377 kts 323°
2026-05-04 18:47 10.29795 -84.50624 14806 ft 380 kts 323°
2026-05-04 18:48 10.31887 -84.52286 15426 ft 383 kts 322°
2026-05-04 18:48 10.33968 -84.53941 16073 ft 385 kts 322°
2026-05-04 18:48 10.36102 -84.55639 16680 ft 388 kts 322°
2026-05-04 18:48 10.38237 -84.57340 17251 ft 390 kts 322°
2026-05-04 18:49 10.40361 -84.59032 17833 ft 393 kts 322°
2026-05-04 18:49 10.42518 -84.60750 18404 ft 396 kts 322°
2026-05-04 18:49 10.44710 -84.62498 18923 ft 399 kts 322°
2026-05-04 18:49 10.46876 -84.64224 19429 ft 402 kts 322°
2026-05-04 18:50 10.49109 -84.66004 19956 ft 404 kts 322°
2026-05-04 18:50 10.51326 -84.67770 20455 ft 407 kts 322°
2026-05-04 18:50 10.53535 -84.69532 20956 ft 409 kts 322°
2026-05-04 18:50 10.55798 -84.71336 21422 ft 412 kts 321°
2026-05-04 18:51 10.58062 -84.73142 21861 ft 415 kts 321°
2026-05-04 18:51 10.60351 -84.74969 22325 ft 417 kts 321°
2026-05-04 18:51 10.62632 -84.76789 22776 ft 420 kts 321°
2026-05-04 18:51 10.64944 -84.78635 23155 ft 424 kts 321°
2026-05-04 18:52 10.67257 -84.80484 23556 ft 427 kts 321°
2026-05-04 18:52 10.69524 -84.82439 24000 ft 429 kts 318°
2026-05-04 18:52 10.71741 -84.84530 24373 ft 433 kts 316°
2026-05-04 18:52 10.73896 -84.86655 24762 ft 436 kts 315°
2026-05-04 18:53 10.76061 -84.88824 25128 ft 439 kts 315°
2026-05-04 18:53 10.78243 -84.91016 25548 ft 440 kts 315°
2026-05-04 18:53 10.80457 -84.93230 25857 ft 445 kts 315°
2026-05-04 18:53 10.82656 -84.95418 26244 ft 447 kts 315°
2026-05-04 18:54 10.84887 -84.97627 26608 ft 449 kts 315°
2026-05-04 18:54 10.87126 -84.99837 26993 ft 451 kts 315°
2026-05-04 18:54 10.89404 -85.02080 27336 ft 453 kts 315°
2026-05-04 18:54 10.91656 -85.04295 27964 ft 448 kts 315°
2026-05-04 18:55 10.93876 -85.06477 28493 ft 446 kts 315°
2026-05-04 18:55 10.98356 -85.10877 29263 ft 447 kts 315°
2026-05-04 18:55 11.00595 -85.13078 29653 ft 448 kts 315°
2026-05-04 18:56 11.02826 -85.15270 30045 ft 448 kts 315°
2026-05-04 18:56 11.05071 -85.17477 30449 ft 448 kts 315°
2026-05-04 18:56 11.07327 -85.19671 30834 ft 448 kts 316°
2026-05-04 18:56 11.09588 -85.21834 31197 ft 448 kts 316°
2026-05-04 18:57 11.11857 -85.23985 31523 ft 449 kts 317°
2026-05-04 18:57 11.14167 -85.26169 31857 ft 449 kts 317°
2026-05-04 18:57 11.18753 -85.30508 31886 ft 449 kts 317°
2026-05-04 18:58 11.23288 -85.34810 31881 ft 447 kts 317°
2026-05-04 18:58 11.27842 -85.39142 31877 ft 447 kts 316°
2026-05-04 18:59 11.32370 -85.43456 31874 ft 442 kts 316°
2026-05-04 18:59 11.36843 -85.47720 31875 ft 437 kts 316°
2026-05-04 19:00 11.41296 -85.51925 31874 ft 439 kts 317°
2026-05-04 19:00 11.45880 -85.56054 31876 ft 439 kts 318°
2026-05-04 19:01 11.50485 -85.60152 31874 ft 438 kts 319°
2026-05-04 19:01 11.55063 -85.64239 31874 ft 438 kts 318°
2026-05-04 19:02 11.59637 -85.68341 31873 ft 438 kts 318°
2026-05-04 19:02 11.64199 -85.72443 31873 ft 438 kts 318°
2026-05-04 19:03 11.68774 -85.76560 31873 ft 438 kts 318°
2026-05-04 19:03 11.73352 -85.80684 31875 ft 438 kts 318°
2026-05-04 19:04 11.77907 -85.84791 31873 ft 438 kts 318°
2026-05-04 19:04 11.82498 -85.88931 31877 ft 438 kts 318°
2026-05-04 19:05 11.87050 -85.93037 31878 ft 437 kts 318°
2026-05-04 19:05 11.91614 -85.97157 31881 ft 438 kts 318°
2026-05-04 19:06 11.96181 -86.01282 31886 ft 438 kts 318°
2026-05-04 19:06 12.00748 -86.05410 31900 ft 440 kts 318°
2026-05-04 19:07 12.05338 -86.09558 31912 ft 438 kts 318°
2026-05-04 19:07 12.09883 -86.13669 31917 ft 438 kts 318°
2026-05-04 19:08 12.13995 -86.18227 31914 ft 436 kts 304°
2026-05-04 19:08 12.16959 -86.23651 31912 ft 436 kts 296°
2026-05-04 19:09 12.19486 -86.29257 31904 ft 436 kts 294°
2026-05-04 19:09 12.21980 -86.34921 31896 ft 437 kts 294°
2026-05-04 19:10 12.24491 -86.40565 31889 ft 435 kts 295°
2026-05-04 19:10 12.27006 -86.46173 31893 ft 435 kts 295°
2026-05-04 19:11 12.29531 -86.51791 31895 ft 435 kts 295°
2026-05-04 19:11 12.32062 -86.57411 31894 ft 436 kts 295°
2026-05-04 19:12 12.35855 -86.65836 31888 ft 436 kts 295°
2026-05-04 19:13 12.38381 -86.71452 31883 ft 436 kts 295°
2026-05-04 19:13 12.40912 -86.77081 31883 ft 437 kts 295°
2026-05-04 19:14 12.43452 -86.82734 31879 ft 436 kts 295°
2026-05-04 19:14 12.45978 -86.88358 31870 ft 436 kts 295°
2026-05-04 19:15 12.48495 -86.93968 31861 ft 436 kts 295°
2026-05-04 19:15 12.51018 -86.99595 31859 ft 437 kts 295°
2026-05-04 19:16 12.53553 -87.05253 31863 ft 436 kts 295°
2026-05-04 19:16 12.56075 -87.10886 31860 ft 437 kts 295°
2026-05-04 19:17 12.58607 -87.16537 31865 ft 435 kts 295°
2026-05-04 19:17 12.61121 -87.22144 31863 ft 435 kts 295°
2026-05-04 19:18 12.63639 -87.27753 31860 ft 436 kts 295°
2026-05-04 19:18 12.66174 -87.33406 31864 ft 435 kts 295°
2026-05-04 19:19 12.68696 -87.39034 31854 ft 436 kts 295°
2026-05-04 19:19 12.71205 -87.44645 31850 ft 436 kts 295°
2026-05-04 19:20 12.73730 -87.50291 31844 ft 436 kts 295°
2026-05-04 19:20 12.76249 -87.55928 31848 ft 437 kts 295°
2026-05-04 19:21 12.78767 -87.61566 31846 ft 436 kts 295°
2026-05-04 19:21 12.81280 -87.67199 31847 ft 436 kts 294°
2026-05-04 19:22 12.83809 -87.72873 31847 ft 435 kts 295°
2026-05-04 19:22 12.86311 -87.78488 31850 ft 437 kts 295°
2026-05-04 19:23 12.88824 -87.84136 31850 ft 435 kts 295°
2026-05-04 19:23 12.91333 -87.89803 31859 ft 435 kts 294°
2026-05-04 19:24 12.93815 -87.95424 31859 ft 436 kts 294°
2026-05-04 19:24 12.96308 -88.01070 31864 ft 435 kts 294°
2026-05-04 19:25 12.98813 -88.06744 31864 ft 436 kts 294°
2026-05-04 19:25 13.01311 -88.12407 31864 ft 437 kts 294°
2026-05-04 19:26 13.03805 -88.18063 31873 ft 436 kts 294°
2026-05-04 19:26 13.06291 -88.23705 31885 ft 435 kts 294°
2026-05-04 19:27 13.08778 -88.29353 31893 ft 435 kts 294°
2026-05-04 19:27 13.11267 -88.35010 31898 ft 435 kts 294°
2026-05-04 19:28 13.13749 -88.40655 31892 ft 434 kts 294°
2026-05-04 19:28 13.16230 -88.46304 31881 ft 436 kts 294°
2026-05-04 19:29 13.18708 -88.51949 31866 ft 435 kts 294°
2026-05-04 19:29 13.21194 -88.57614 31862 ft 435 kts 294°
2026-05-04 19:30 13.23671 -88.63263 31856 ft 434 kts 294°
2026-05-04 19:30 13.26185 -88.69004 31971 ft 448 kts 294°
2026-05-04 19:31 13.28769 -88.74906 32372 ft 456 kts 294°
2026-05-04 19:31 13.30063 -88.77860 32979 ft 451 kts 294°
2026-05-04 19:31 13.31336 -88.80769 33530 ft 447 kts 294°
2026-05-04 19:31 13.32601 -88.83662 34064 ft 444 kts 294°
2026-05-04 19:32 13.33864 -88.86552 34557 ft 441 kts 294°
2026-05-04 19:32 13.35109 -88.89401 35008 ft 439 kts 293°
2026-05-04 19:32 13.36359 -88.92258 35408 ft 437 kts 293°
2026-05-04 19:32 13.37615 -88.95135 35581 ft 441 kts 293°
2026-05-04 19:33 13.38868 -88.98004 35857 ft 441 kts 293°
2026-05-04 19:33 13.41410 -89.03841 35880 ft 446 kts 293°
2026-05-04 19:34 13.43802 -89.09636 35886 ft 442 kts 289°
2026-05-04 19:34 13.45645 -89.15646 35892 ft 443 kts 285°
2026-05-04 19:35 13.47315 -89.21712 35894 ft 442 kts 285°
2026-05-04 19:35 13.48997 -89.27771 35894 ft 442 kts 285°
2026-05-04 19:36 13.50724 -89.33867 35906 ft 442 kts 285°
2026-05-04 19:36 13.52459 -89.39919 35907 ft 443 kts 285°
2026-05-04 19:37 13.54206 -89.45995 35897 ft 441 kts 285°
2026-05-04 19:37 13.55950 -89.52055 35901 ft 443 kts 285°
2026-05-04 19:38 13.57677 -89.58054 35900 ft 442 kts 285°
2026-05-04 19:38 13.59423 -89.64130 35901 ft 442 kts 285°
2026-05-04 19:39 13.61157 -89.70165 35905 ft 442 kts 285°
2026-05-04 19:39 13.62893 -89.76227 35902 ft 443 kts 285°
2026-05-04 19:40 13.64644 -89.82340 35903 ft 443 kts 285°
2026-05-04 19:40 13.66383 -89.88405 35893 ft 442 kts 285°
2026-05-04 19:41 13.68100 -89.94403 35892 ft 443 kts 285°
2026-05-04 19:41 13.69841 -90.00495 35880 ft 442 kts 285°
2026-05-04 19:42 13.71565 -90.06539 35884 ft 442 kts 285°
2026-05-04 19:42 13.73292 -90.12598 35874 ft 443 kts 285°
2026-05-04 19:43 13.75043 -90.18671 35878 ft 443 kts 285°